Location: Manchester NH
(43.0000°N, 71.5000°W)
Time: 18:12:49
(UTC-04:00)

Tiangong 2 - Visible Passes

Search period start: 17 October 2017 00:00
Search period end: 27 October 2017 00:00
Orbit: 388 x 392 km, 42.8° (Epoch: 17 October)

Date Brightness Start Highest point End Pass type
(mag) Time Alt. Az. Time Alt. Az. Time Alt. Az.
17 Oct 1.2 05:18:05 69° SSE 05:18:05 69° SSE 05:21:06 10° ESE visible
18 Oct 4.6 04:23:06 11° E 04:23:06 11° E 04:23:18 10° E visible
18 Oct 2.0 05:55:26 24° WSW 05:56:48 36° SSW 05:59:46 10° SE visible
19 Oct 3.0 05:00:30 26° SE 05:00:30 26° SE 05:02:09 10° ESE visible
19 Oct 3.3 06:33:37 10° WSW 06:35:26 14° SSW 06:37:15 10° S visible
20 Oct 2.7 05:37:58 22° SSW 05:37:58 22° SSW 05:40:20 10° SSE visible
